Cyprus Cement — C6UP5 — position and weather

sailwx.info

Track history (hours):
 
Tides and Currents Weather Stations Pressure Air Temp Water Temp Dewpoint Dewpoint Depression Visibility Wind Speed Wind Dir Waves Ship Positions

Cyprus Cement

Last reported at 2014-Nov-22 02:33 UTC. Time now 2014-Nov-23 02:22 UTC.
Position N 59°12' E 005°02'.

Length 97 m; draft 7 m.

Type: Cargo ship. MMSI: 311988000.

Date/timePositionNaut miles runAvg speedWind from/ knotsBaromVisibWave heightAir tempDewpointWater temp
2014-Nov-22 02:33N 59°12' E 005°02'1212.3
2014-Nov-22 01:33N 59°00' E 005°10'1111.4
2014-Nov-22 00:33N 58°49' E 005°17'1111.4
2014-Nov-21 23:33N 58°39' E 005°25'1312.7
2014-Nov-21 22:33N 58°28' E 005°37'1312.4
2014-Nov-21 21:33N 58°19' E 005°55'1111.1
2014-Nov-21 20:32N 58°11' E 006°10'1110.8
2014-Nov-21 19:33N 58°04' E 006°24'5911.0
2014-Nov-21 14:15N 58°02' E 008°15'912.5
2014-Nov-21 13:33N 58°07' E 008°28'1313.0
2014-Nov-21 12:34N 58°16' E 008°46'5611.0
2014-Nov-21 07:27N 59°04' E 009°42'49 2.5
2014-Nov-20 12:04N 58°23' E 008°51'510.2
2014-Nov-20 11:33N 58°19' E 008°44'10 9.9
2014-Nov-20 10:33N 58°12' E 008°31'10 9.9
2014-Nov-20 09:33N 58°06' E 008°16'59 3.7
2014-Nov-19 17:34N 58°08' E 006°26'1111.4
2014-Nov-19 16:34N 58°16' E 006°11'1110.8
2014-Nov-19 15:33N 58°23' E 005°55'1010.1
2014-Nov-19 14:33N 58°29' E 005°39'1511.5
2014-Nov-19 13:17N 58°42' E 005°27'810.5
2014-Nov-19 12:33N 58°49' E 005°26'8 7.9
2014-Nov-19 11:32N 58°55' E 005°36'0 0.0
2014-Nov-19 10:32N 58°55' E 005°36'0 0.0
2014-Nov-19 09:32N 58°55' E 005°36'0 0.0
2014-Nov-19 08:32N 58°55' E 005°36'0 0.1
2014-Nov-19 07:33N 58°55' E 005°36'7 7.4
2014-Nov-19 06:33N 59°03' E 005°33'9 9.1
2014-Nov-19 05:34N 58°57' E 005°47'4 3.5
2014-Nov-19 04:32N 58°54' E 005°45'0 0.0
2014-Nov-19 03:32N 58°54' E 005°45'0 0.0
2014-Nov-19 02:32N 58°54' E 005°45'0 0.0
2014-Nov-19 01:32N 58°54' E 005°45'0 0.0
2014-Nov-19 00:32N 58°54' E 005°45'1 0.8
2014-Nov-18 23:33N 58°55' E 005°46'7 7.2
2014-Nov-18 22:33N 59°01' E 005°40'1212.1
2014-Nov-18 21:33N 59°09' E 005°21'298 9.5
2014-Nov-17 14:21N 63°39' E 009°42'911.0
2014-Nov-17 13:34N 63°32' E 009°53'1010.2
2014-Nov-17 12:33N 63°31' E 010°16'1212.5
2014-Nov-17 11:33N 63°38' E 010°40'1212.2
2014-Nov-17 10:34N 63°44' E 011°03'7 0.2
2014-Nov-16 07:19N 63°46' E 011°17'7 9.4
2014-Nov-16 06:32N 63°44' E 011°01'1110.8
2014-Nov-16 05:33N 63°38' E 010°41'1212.1
2014-Nov-16 04:33N 63°31' E 010°19'1110.6
2014-Nov-16 03:34N 63°30' E 009°55'1110.7
2014-Nov-16 02:32N 63°39' E 009°44'  
2014-Nov-13 10:12N 59°30' E 005°13'0 0.3
2014-Nov-13 09:28N 59°30' E 005°13'1111.8
2014-Nov-13 08:33N 59°19' E 005°20'1211.6
2014-Nov-13 07:33N 59°08' E 005°24'1111.3
2014-Nov-13 06:33N 59°00' E 005°40'0 0.1
2014-Nov-13 05:31N 58°60' E 005°40'0 0.0
2014-Nov-13 04:31N 58°60' E 005°40'0 0.0
2014-Nov-13 03:31N 58°60' E 005°40'0 0.0
2014-Nov-13 02:31N 58°60' E 005°40'0 0.0
2014-Nov-13 01:31N 58°60' E 005°40'0 0.0
2014-Nov-13 00:31N 58°60' E 005°40'0 0.0
2014-Nov-12 23:31N 58°60' E 005°40'0 0.0
2014-Nov-12 22:31N 58°60' E 005°40'1 0.6
2014-Nov-12 21:33N 59°01' E 005°40'4 3.7
2014-Nov-12 20:34N 59°01' E 005°33'1211.5
2014-Nov-12 19:33N 58°50' E 005°28'1211.7
2014-Nov-12 18:30N 58°38' E 005°29'1111.6
2014-Nov-12 17:33N 58°28' E 005°38'1212.2
2014-Nov-12 16:34N 58°19' E 005°56'1212.2
2014-Nov-12 15:33N 58°11' E 006°12'6512.0
2014-Nov-12 10:07N 58°01' E 008°15'712.9
2014-Nov-12 09:33N 58°06' E 008°26'1313.4
2014-Nov-12 08:33N 58°15' E 008°44'  
Track history (hours):
 
Tides and Currents Weather Stations Pressure Air Temp Water Temp Dewpoint Dewpoint Depression Visibility Wind Speed Wind Dir Waves Ship Positions

Cyprus Cement

Last reported at 2014-Nov-22 02:33 UTC. Time now 2014-Nov-23 02:22 UTC.
Position N 59°12' E 005°02'.

Length 97 m; draft 7 m.

Type: Cargo ship. MMSI: 311988000.

Date/timePositionNaut miles runAvg speedWind from/ knotsBaromVisibWave heightAir tempDewpointWater temp
2014-Nov-22 02:33N 59°12' E 005°02'1212.3
2014-Nov-22 01:33N 59°00' E 005°10'1111.4
2014-Nov-22 00:33N 58°49' E 005°17'1111.4
2014-Nov-21 23:33N 58°39' E 005°25'1312.7
2014-Nov-21 22:33N 58°28' E 005°37'1312.4
2014-Nov-21 21:33N 58°19' E 005°55'1111.1
2014-Nov-21 20:32N 58°11' E 006°10'1110.8
2014-Nov-21 19:33N 58°04' E 006°24'5911.0
2014-Nov-21 14:15N 58°02' E 008°15'912.5
2014-Nov-21 13:33N 58°07' E 008°28'1313.0
2014-Nov-21 12:34N 58°16' E 008°46'5611.0
2014-Nov-21 07:27N 59°04' E 009°42'49 2.5
2014-Nov-20 12:04N 58°23' E 008°51'510.2
2014-Nov-20 11:33N 58°19' E 008°44'10 9.9
2014-Nov-20 10:33N 58°12' E 008°31'10 9.9
2014-Nov-20 09:33N 58°06' E 008°16'59 3.7
2014-Nov-19 17:34N 58°08' E 006°26'1111.4
2014-Nov-19 16:34N 58°16' E 006°11'1110.8
2014-Nov-19 15:33N 58°23' E 005°55'1010.1
2014-Nov-19 14:33N 58°29' E 005°39'1511.5
2014-Nov-19 13:17N 58°42' E 005°27'810.5
2014-Nov-19 12:33N 58°49' E 005°26'8 7.9
2014-Nov-19 11:32N 58°55' E 005°36'0 0.0
2014-Nov-19 10:32N 58°55' E 005°36'0 0.0
2014-Nov-19 09:32N 58°55' E 005°36'0 0.0
2014-Nov-19 08:32N 58°55' E 005°36'0 0.1
2014-Nov-19 07:33N 58°55' E 005°36'7 7.4
2014-Nov-19 06:33N 59°03' E 005°33'9 9.1
2014-Nov-19 05:34N 58°57' E 005°47'4 3.5
2014-Nov-19 04:32N 58°54' E 005°45'0 0.0
2014-Nov-19 03:32N 58°54' E 005°45'0 0.0
2014-Nov-19 02:32N 58°54' E 005°45'0 0.0
2014-Nov-19 01:32N 58°54' E 005°45'0 0.0
2014-Nov-19 00:32N 58°54' E 005°45'1 0.8
2014-Nov-18 23:33N 58°55' E 005°46'7 7.2
2014-Nov-18 22:33N 59°01' E 005°40'1212.1
2014-Nov-18 21:33N 59°09' E 005°21'298 9.5
2014-Nov-17 14:21N 63°39' E 009°42'911.0
2014-Nov-17 13:34N 63°32' E 009°53'1010.2
2014-Nov-17 12:33N 63°31' E 010°16'1212.5
2014-Nov-17 11:33N 63°38' E 010°40'1212.2
2014-Nov-17 10:34N 63°44' E 011°03'7 0.2
2014-Nov-16 07:19N 63°46' E 011°17'7 9.4
2014-Nov-16 06:32N 63°44' E 011°01'1110.8
2014-Nov-16 05:33N 63°38' E 010°41'1212.1
2014-Nov-16 04:33N 63°31' E 010°19'1110.6
2014-Nov-16 03:34N 63°30' E 009°55'1110.7
2014-Nov-16 02:32N 63°39' E 009°44'  
2014-Nov-13 10:12N 59°30' E 005°13'0 0.3
2014-Nov-13 09:28N 59°30' E 005°13'1111.8
2014-Nov-13 08:33N 59°19' E 005°20'1211.6
2014-Nov-13 07:33N 59°08' E 005°24'1111.3
2014-Nov-13 06:33N 59°00' E 005°40'0 0.1
2014-Nov-13 05:31N 58°60' E 005°40'0 0.0
2014-Nov-13 04:31N 58°60' E 005°40'0 0.0
2014-Nov-13 03:31N 58°60' E 005°40'0 0.0
2014-Nov-13 02:31N 58°60' E 005°40'0 0.0
2014-Nov-13 01:31N 58°60' E 005°40'0 0.0
2014-Nov-13 00:31N 58°60' E 005°40'0 0.0
2014-Nov-12 23:31N 58°60' E 005°40'0 0.0
2014-Nov-12 22:31N 58°60' E 005°40'1 0.6
2014-Nov-12 21:33N 59°01' E 005°40'4 3.7
2014-Nov-12 20:34N 59°01' E 005°33'1211.5
2014-Nov-12 19:33N 58°50' E 005°28'1211.7
2014-Nov-12 18:30N 58°38' E 005°29'1111.6
2014-Nov-12 17:33N 58°28' E 005°38'1212.2
2014-Nov-12 16:34N 58°19' E 005°56'1212.2
2014-Nov-12 15:33N 58°11' E 006°12'6512.0
2014-Nov-12 10:07N 58°01' E 008°15'712.9
2014-Nov-12 09:33N 58°06' E 008°26'1313.4
2014-Nov-12 08:33N 58°15' E 008°44'  

Dump ship's entire track history